[[{"header":{"parameterUnit":"m.s-1","parameterCategory":1,"la1":30.2991,"la2":30.254,"lo1":-89.0895,"lo2":-89.0444,"dy":0.0017,"dx":0.0017,"nx":28,"ny":28,"refTime":"2024-07-06T21:00:00:Z","depth":0,"parameterNumber":2,"parameterNumberName":"U-component_of_WINDS"},"data":[0,0,0,0,0,0,0,0,0,0,0,0,0,0,0,0,0,0,0,0,0,0,0,0,0,0,0,0,0,0,0,0,0,0,0,0,0,0,0,0,0,0,0,0,0,0,0,0,0,0,0,0,0,0,0,0,0,0,-1.006,-1.006,0,-0.9997,-0.9996,-0.9995,-0.9954,-0.9954,-0.9954,-0.9953,-0.9886,-0.9884,-0.9882,0,0,0,0,0,0,0,0,0,0,0,0,0,-1.0143,-1.0142,-1.006,-1.006,-1.0059,-0.9997,-0.9996,-0.9995,-0.9954,-0.9954,-0.9954,-0.9953,-0.9886,-0.9884,-0.9882,0,0,0,0,0,0,0,0,0,0,0,0,0,-1.0096,-1.0142,-1.0061,-1.0031,-1.0028,-0.9997,-0.9996,-0.9995,-0.9954,-0.9954,-0.9954,-0.9953,-0.9887,-0.9884,-0.9882,-0.9875,0,0,-0.9875,-0.9874,0,0,0,0,0,0,0,0,-1.0099,-1.0093,-1.0036,-1.0033,-1.0029,-0.9983,-1.0,-0.9955,-0.9954,-0.9982,-0.9953,-0.9953,-0.9918,-0.9913,-0.9902,-0.9872,-0.9869,-0.9875,-0.9873,-0.9872,-0.9872,0,0,0,0,0,0,0,-1.0102,-1.0096,-1.0035,-1.0035,-1.0031,-1.002,-1.0013,-0.9992,-0.9953,-0.998,-0.9976,-0.997,-0.9916,-0.9904,-0.99,-0.9868,-0.9875,-0.9873,-0.9871,-0.987,-0.9829,-0.9829,0,0,0,0,0,0,-1.0111,-1.0099,-1.0037,-1.0033,-1.0064,-1.0019,-1.0011,-0.9998,-0.9953,-0.9946,-0.997,-0.9968,-0.9909,-0.9903,-0.9898,-0.9887,-0.9872,-0.987,-0.9869,-0.9829,-0.9829,-0.9829,0,0,0,0,0,0,-1.0113,-1.0106,-1.004,-1.0065,-1.0056,-1.0018,-1.0004,-0.9997,-0.9985,-0.9946,-0.9938,-0.9965,-0.9908,-0.9901,-0.9881,-0.9884,-0.9869,-0.9867,-0.9828,-0.9829,-0.9829,-0.9865,0,0,0,0,0,0,-1.0115,-1.0107,-1.0104,-1.0065,-1.0055,-1.0025,-1.0004,-0.9996,-0.9982,-0.9978,-0.9939,-0.9933,-0.9907,-0.9885,-0.9879,-0.988,-0.9865,-0.9828,-0.9829,-0.9829,-0.9863,-0.9866,-0.9869,0,0,0,0,0,-1.0118,-1.0116,-1.0104,-1.0097,-1.0051,-1.0026,-1.0019,-0.9991,-0.9982,-0.9979,-0.9954,-0.9934,-0.9884,-0.9883,-0.9876,-0.9877,-0.9828,-0.9828,-0.9829,-0.9862,-0.9866,-0.9869,0,0,0,0,0,0,-1.0155,-1.011,-1.0097,-1.0082,-1.0058,-1.0019,-1.0014,-0.9996,-0.9973,-0.9971,-0.9936,-0.9927,-0.9911,-0.9892,-0.9891,-0.9868,-0.9854,-0.9853,-0.9881,-0.9884,-0.9887,-0.9892,-0.9863,0,0,0,0,0,-1.0161,-1.0145,-1.0107,-1.0097,-1.0086,-1.0052,-1.004,-1.0021,-0.9994,-0.9983,-0.9956,-0.993,-0.9909,-0.9895,-0.9874,-0.986,-0.9851,-0.9857,-0.986,-0.9862,-0.9862,-0.9854,-0.9856,-0.9832,-0.9832,-0.9832,0,0,-1.0174,-1.0148,-1.0139,-1.0104,-1.0083,-1.0067,-1.0044,-1.0027,-1.0014,-0.998,-0.996,-0.994,-0.9908,-0.9892,-0.9883,-0.9875,-0.9867,-0.9863,-0.9866,-0.9864,-0.9855,-0.9857,-0.9859,-0.9832,-0.9832,-0.9832,0,0,-1.0189,-1.0168,-1.0158,-1.0137,-1.0107,-1.0084,-1.0082,-1.0045,-1.0031,-1.0011,-0.9985,-0.9968,-0.9932,-0.9911,-0.9896,-0.9903,-0.9884,-0.9897,-0.9912,-0.9905,-0.9906,-0.9908,-0.9911,-0.9912,-0.9897,-0.9897,-0.9897,0,-1.0208,-1.0183,-1.0154,-1.014,-1.0125,-1.0094,-1.0083,-1.0065,-1.0028,-1.0018,-1.001,-0.9964,-0.9941,-0.9919,-0.9921,-0.991,-0.9905,-0.9901,-0.9909,-0.991,-0.9911,-0.9913,-0.9914,-0.9899,-0.9899,-0.9899,-0.9898,0,-1.0209,-1.0192,-1.0187,-1.0154,-1.0138,-1.0126,-1.0094,-1.0082,-1.0064,-1.0042,-1.0022,-0.9993,-0.9965,-0.9958,-0.9939,-0.9934,-0.993,-0.9916,-0.9901,-0.9915,-0.9917,-0.9917,-0.9901,-0.9901,-0.99,-0.99,0,0,-1.0244,-1.0196,-1.0195,-1.0179,-1.0143,-1.0129,-1.0115,-1.0089,-1.0079,-1.0054,-1.0041,-1.0011,-0.9998,-0.9981,-0.996,-0.9953,-0.9961,-0.9939,-0.9938,-0.9945,-0.9953,-0.9963,-0.9965,-0.9948,-0.9948,-0.9948,-0.9955,0,-1.0254,-1.0228,-1.0202,-1.0185,-1.0168,-1.014,-1.0127,-1.0103,-1.0083,-1.0065,-1.0042,-1.0022,-1.0006,-0.9995,-0.9987,-0.9962,-0.9962,-0.9961,-0.9935,-0.9934,-0.9944,-0.9966,-0.9977,-0.9985,-0.9956,-0.9956,-0.9956,0,-1.0261,-1.024,-1.0222,-1.0188,-1.018,-1.0169,-1.0143,-1.0127,-1.0099,-1.0085,-1.0066,-1.0044,-1.0026,-1.0014,-0.999,-0.9989,-0.9977,-0.9963,-0.9963,-0.9959,-0.9946,-0.9962,-0.9987,-0.9988,-0.9956,-0.9956,-0.9956,0,-1.0289,-1.0255,-1.024,-1.0228,-1.0188,-1.0181,-1.0164,-1.0136,-1.0122,-1.0099,-1.0089,-1.0064,-1.005,-1.0031,-1.0002,-0.9996,-0.9981,-0.9966,-0.9967,-0.9968,-0.9965,-0.9966,-0.9988,-0.9958,-0.9958,-0.9958,-0.9958,0,-1.0302,-1.0292,-1.0252,-1.0243,-1.0231,-1.02,-1.0189,-1.0169,-1.0144,-1.013,-1.0103,-1.009,-1.0053,-1.0036,-1.0013,-0.9996,-0.999,-0.9977,-0.9971,-0.998,-0.9981,-0.9971,-0.997,-0.9958,-0.9958,-0.9958,-0.9958,0,-1.0331,-1.0304,-1.0286,-1.025,-1.0241,-1.0233,-1.0202,-1.0191,-1.017,-1.0152,-1.0146,-1.0111,-1.0089,-1.0059,-1.0027,-1.0012,-0.9998,-0.9989,-1.0008,-1.0004,-1.0008,-1.0008,-1.0024,-1.0024,-0.9994,-0.9995,-0.9995,0,-1.0341,-1.0333,-1.0297,-1.0286,-1.027,-1.0253,-1.0239,-1.0209,-1.0195,-1.0163,-1.0156,-1.0132,-1.0112,-1.0077,-1.0049,-1.0024,-1.0014,-1.0021,-1.001,-1.0019,-1.0014,-1.0015,-1.0014,-1.0024,-1.0025,-1.0025,-1.0025,0,-1.0362,-1.035,-1.0331,-1.0308,-1.0292,-1.0272,-1.0251,-1.0243,-1.0208,-1.0194,-1.0172,-1.0156,-1.0124,-1.0101,-1.0072,-1.0053,-1.0033,-1.0029,-1.0028,-1.0037,-1.0048,-1.0042,-1.0015,-1.0029,-1.0028,-1.0028,-1.0028,-1.0028,-1.0382,-1.0374,-1.0347,-1.0327,-1.0309,-1.0289,-1.0278,-1.0255,-1.0237,-1.0209,-1.0192,-1.0171,-1.0143,-1.0103,-1.0086,-1.0068,-1.006,-1.0058,-1.0058,-1.0058,-1.0061,-1.0051,-1.0062,-1.0062,-1.0062,-1.0062,-1.0062,0,-1.0402,-1.0384,-1.0366,-1.0338,-1.0322,-1.0306,-1.0281,-1.0269,-1.0251,-1.0228,-1.0208,-1.0183,-1.016,-1.013,-1.0105,-1.0096,-1.0086,-1.009,-1.0091,-1.0087,-1.007,-1.0073,-1.0099,-1.0099,-1.0099,-1.0099,-1.0099,-1.0099,-1.041,-1.0395,-1.038,-1.0355,-1.0336,-1.0316,-1.0304,-1.0286,-1.0267,-1.024,-1.0221,-1.0202,-1.0176,-1.0149,-1.0127,-1.0119,-1.011,-1.0118,-1.0106,-1.0091,-1.0088,-1.0085,-1.0088,-1.0116,-1.0116,-1.0125,-1.0125,-1.0125]},{"header":{"parameterUnit":"m.s-1","parameterCategory":1,"la1":30.2991,"la2":30.254,"lo1":-89.0895,"lo2":-89.0444,"dy":0.0017,"dx":0.0017,"nx":28,"ny":28,"refTime":"2024-07-06T21:00:00:Z","depth":0,"parameterNumber":3,"parameterNumberName":"V-component_of_WINDS"},"data":[0,0,0,0,0,0,0,0,0,0,0,0,0,0,0,0,0,0,0,0,0,0,0,0,0,0,0,0,0,0,0,0,0,0,0,0,0,0,0,0,0,0,0,0,0,0,0,0,0,0,0,0,0,0,0,0,0,0,-1.8793,-1.8793,0,-1.8843,-1.8843,-1.8844,-1.8855,-1.8855,-1.8855,-1.8854,-1.8904,-1.8905,-1.8907,0,0,0,0,0,0,0,0,0,0,0,0,0,-1.8706,-1.8707,-1.8793,-1.8793,-1.8794,-1.8843,-1.8843,-1.8844,-1.8856,-1.8855,-1.8855,-1.8854,-1.8903,-1.8905,-1.8907,0,0,0,0,0,0,0,0,0,0,0,0,0,-1.8748,-1.8708,-1.8793,-1.8806,-1.8807,-1.8843,-1.8844,-1.8844,-1.8856,-1.8855,-1.8855,-1.8854,-1.8903,-1.8905,-1.8907,-1.8933,0,0,-1.8915,-1.8916,0,0,0,0,0,0,0,0,-1.8746,-1.8752,-1.8803,-1.8805,-1.8807,-1.8842,-1.8831,-1.8874,-1.8856,-1.8837,-1.8854,-1.8854,-1.8884,-1.8888,-1.8898,-1.8935,-1.8937,-1.8915,-1.8917,-1.8918,-1.8918,0,0,0,0,0,0,0,-1.8743,-1.875,-1.8813,-1.8804,-1.8806,-1.8809,-1.8814,-1.8839,-1.8863,-1.8839,-1.884,-1.8846,-1.8885,-1.8896,-1.8899,-1.8938,-1.8915,-1.8917,-1.8919,-1.892,-1.8999,-1.9,0,0,0,0,0,0,-1.8738,-1.8747,-1.8811,-1.8814,-1.8775,-1.8811,-1.8817,-1.8832,-1.8862,-1.8867,-1.8846,-1.8846,-1.8892,-1.8896,-1.8901,-1.8934,-1.8918,-1.892,-1.8921,-1.8999,-1.9,-1.9,0,0,0,0,0,0,-1.8736,-1.8744,-1.8809,-1.8781,-1.8789,-1.8813,-1.8829,-1.8833,-1.8844,-1.8868,-1.8872,-1.8853,-1.8892,-1.8898,-1.8925,-1.8936,-1.8921,-1.8923,-1.8998,-1.8999,-1.9,-1.8999,0,0,0,0,0,0,-1.8734,-1.8743,-1.8753,-1.8781,-1.8791,-1.8833,-1.883,-1.8834,-1.8848,-1.8849,-1.8876,-1.888,-1.8892,-1.8922,-1.8928,-1.8939,-1.8925,-1.8997,-1.8998,-1.9,-1.8998,-1.9,-1.9001,0,0,0,0,0,-1.8731,-1.875,-1.8754,-1.8761,-1.8804,-1.8833,-1.8839,-1.8853,-1.8849,-1.886,-1.8875,-1.8879,-1.8933,-1.8924,-1.8931,-1.8943,-1.8997,-1.8998,-1.8999,-1.8997,-1.8999,-1.9001,0,0,0,0,0,0,-1.8722,-1.8754,-1.8758,-1.8787,-1.8808,-1.8835,-1.8849,-1.8854,-1.8875,-1.8875,-1.889,-1.8896,-1.8923,-1.8936,-1.8925,-1.897,-1.8965,-1.8968,-1.8961,-1.8963,-1.8964,-1.8961,-1.8927,0,0,0,0,0,-1.8723,-1.8745,-1.8772,-1.8795,-1.8805,-1.8825,-1.8838,-1.8847,-1.8868,-1.8877,-1.8894,-1.8914,-1.8936,-1.895,-1.8971,-1.9,-1.9006,-1.9011,-1.9013,-1.9014,-1.9017,-1.9034,-1.9037,-1.9005,-1.9005,-1.9005,0,0,-1.8727,-1.8747,-1.8759,-1.8794,-1.881,-1.8832,-1.8832,-1.8855,-1.8871,-1.888,-1.8908,-1.8921,-1.8944,-1.8973,-1.8986,-1.8984,-1.9027,-1.9016,-1.9017,-1.9019,-1.9035,-1.9038,-1.9041,-1.9006,-1.9006,-1.9006,0,0,-1.8744,-1.8761,-1.8783,-1.88,-1.8826,-1.8839,-1.8845,-1.8872,-1.8881,-1.8909,-1.8917,-1.8936,-1.8973,-1.899,-1.9003,-1.9028,-1.9032,-1.9034,-1.9042,-1.9058,-1.9061,-1.9063,-1.9073,-1.9076,-1.9036,-1.9036,-1.9036,0,-1.8745,-1.8779,-1.8794,-1.8817,-1.8832,-1.8842,-1.8864,-1.888,-1.8911,-1.8921,-1.8918,-1.8966,-1.8982,-1.9015,-1.9021,-1.9031,-1.9038,-1.9031,-1.9059,-1.9062,-1.9064,-1.9074,-1.9077,-1.9037,-1.9037,-1.9037,-1.9037,0,-1.8779,-1.8802,-1.8816,-1.8847,-1.8864,-1.8886,-1.8905,-1.892,-1.8927,-1.8941,-1.897,-1.899,-1.9016,-1.9024,-1.9031,-1.9058,-1.9056,-1.9056,-1.9052,-1.9067,-1.9076,-1.908,-1.9037,-1.9037,-1.9037,-1.9037,0,0,-1.8792,-1.8832,-1.8837,-1.8852,-1.8881,-1.8899,-1.8922,-1.8948,-1.8961,-1.8982,-1.9002,-1.9033,-1.9034,-1.9049,-1.9058,-1.9073,-1.9092,-1.9071,-1.9072,-1.9075,-1.9124,-1.9125,-1.9129,-1.9095,-1.9096,-1.9096,-1.9123,0,-1.8814,-1.8856,-1.8871,-1.8906,-1.8928,-1.8938,-1.8958,-1.8978,-1.8991,-1.9012,-1.9026,-1.9049,-1.9047,-1.9056,-1.9071,-1.9087,-1.9102,-1.9085,-1.9114,-1.9115,-1.9109,-1.9133,-1.9134,-1.9157,-1.9126,-1.9127,-1.9127,0,-1.8845,-1.8868,-1.8905,-1.8933,-1.8943,-1.8961,-1.8986,-1.9006,-1.9029,-1.9037,-1.9055,-1.9063,-1.9088,-1.9081,-1.9115,-1.9103,-1.9115,-1.9125,-1.9126,-1.913,-1.9122,-1.9138,-1.9165,-1.9169,-1.9133,-1.9132,-1.9132,0,-1.8852,-1.8892,-1.892,-1.8932,-1.8965,-1.8977,-1.8991,-1.9014,-1.9029,-1.9051,-1.9062,-1.9086,-1.9099,-1.9118,-1.9133,-1.9126,-1.9166,-1.916,-1.9174,-1.9173,-1.9182,-1.9181,-1.9212,-1.9189,-1.9189,-1.9189,-1.9189,0,-1.8875,-1.8898,-1.8924,-1.8941,-1.8967,-1.8983,-1.9008,-1.9023,-1.9043,-1.9063,-1.9073,-1.9091,-1.9109,-1.913,-1.9142,-1.9168,-1.9174,-1.9182,-1.9185,-1.9182,-1.9181,-1.9191,-1.919,-1.919,-1.9189,-1.9189,-1.9189,0,-1.8888,-1.8906,-1.8937,-1.8966,-1.8974,-1.8992,-1.9016,-1.9033,-1.9047,-1.9073,-1.908,-1.9101,-1.9126,-1.9143,-1.9175,-1.9182,-1.9212,-1.9214,-1.9205,-1.9206,-1.9219,-1.9218,-1.9258,-1.9264,-1.9236,-1.9236,-1.9236,0,-1.8902,-1.892,-1.8951,-1.8966,-1.898,-1.9003,-1.902,-1.9036,-1.9052,-1.9081,-1.9094,-1.912,-1.9142,-1.9182,-1.92,-1.9225,-1.9228,-1.924,-1.9232,-1.9228,-1.9229,-1.9228,-1.9231,-1.9242,-1.9242,-1.9242,-1.9242,0,-1.8925,-1.8933,-1.8957,-1.8983,-1.9002,-1.9024,-1.9045,-1.9056,-1.9077,-1.9094,-1.9121,-1.9138,-1.9171,-1.9197,-1.9223,-1.9237,-1.9243,-1.9245,-1.9249,-1.9247,-1.9241,-1.9245,-1.9209,-1.9244,-1.9244,-1.9244,-1.9243,-1.9243,-1.8939,-1.8956,-1.8981,-1.9007,-1.9025,-1.9045,-1.9063,-1.908,-1.9103,-1.9132,-1.914,-1.9168,-1.9191,-1.9227,-1.9242,-1.9263,-1.9262,-1.9268,-1.927,-1.9272,-1.9272,-1.9237,-1.9268,-1.9268,-1.9268,-1.9268,-1.9268,0,-1.8964,-1.8981,-1.9004,-1.9035,-1.9055,-1.906,-1.9084,-1.9101,-1.9125,-1.9147,-1.9168,-1.9199,-1.9224,-1.9245,-1.9271,-1.9285,-1.9288,-1.9291,-1.929,-1.9294,-1.9272,-1.9266,-1.9288,-1.9288,-1.9288,-1.9288,-1.9288,-1.9288,-1.8979,-1.9009,-1.902,-1.9059,-1.9075,-1.9103,-1.9117,-1.9136,-1.9153,-1.9187,-1.9209,-1.9222,-1.9244,-1.9272,-1.9295,-1.93,-1.931,-1.9312,-1.9318,-1.9297,-1.9295,-1.9293,-1.9288,-1.9314,-1.9314,-1.9339,-1.9339,-1.9339]}]]